W7YP Weather Reports


Display with metric or nautical units.
time (UTC)temp
F
wind
direction
speed
MPH
gust
MPH
rain 1hr
in
rain 24hr
in
rain mn
in
humidity
%
barometer
mb
20260902220657 54 310 6.0 17.0 0.13 0.13 0.13 91 1009.7
20260902220157 54 101 7.0 18.0 0.11 0.11 0.12 91 1009.5
20260902215657 54 263 8.0 18.0 0.10 0.10 0.10 90 1009.5
20260902215157 54 342 6.0 21.0 0.08 0.08 0.08 89 1009.7
20260902214700 55 49 4.0 21.0 0.04 0.04 0.05 88 1009.2
20260902214419 56 241 8.0 18.0 0.02 0.02 0.02 86 1009.3
20260902213652 56 74 8.0 17.0 0.01 0.01 0.01 84 1009.2
20260902213153 57 207 8.0 24.0 0.01 0.01 0.01 83 1009.3
20260902212915 59 344 6.0 24.0 0.01 0.01 0.01 81 1009.0
20260902212509 60 342 7.0 22.0 0.00 0.00 0.00 77 1008.2
20260902212402 61 150 9.0 24.0 0.00 0.00 0.00 73 1008.5
20260902211149 62 205 7.0 26.0 0.00 0.00 0.00 70 1008.2
20260902210905 64 322 9.0 26.0 0.00 0.00 0.00 67 1007.9
20260902210143 65 339 4.0 28.0 0.00 0.00 0.00 62 1007.2
20260902205644 67 242 6.0 28.0 0.00 0.00 0.00 59 1007.4
20260902205144 69 54 6.0 17.0 0.00 0.00 0.00 56 1007.4
20260902204908 71 321 3.0 13.0 0.00 0.00 0.00 55 1007.1
20260902204144 72 326 3.0 13.0 0.00 0.00 0.00 53 1007.1
20260902203900 73 342 1.0 7.0 0.00 0.00 0.00 53 1006.9
20260902203405 73 33 3.0 8.0 0.00 0.00 0.00 51 1007.0
20260902202640 73 71 2.0 8.0 0.00 0.00 0.00 51 1006.9
20260902202140 73 214 2.0 11.0 0.00 0.00 0.00 51 1006.8
20260902201904 73 24 3.0 11.0 0.00 0.00 0.00 53 1007.0
20260902201136 73 348 1.0 16.0 0.00 0.00 0.00 52 1007.0
20260902200636 73 183 4.0 16.0 0.00 0.00 0.00 50 1006.8
20260902200136 73 134 0.0 6.0 0.00 0.00 0.00 51 1006.8
20260902195635 73 209 2.0 6.0 0.00 0.00 0.00 49 1006.8
20260902195136 73 26 1.0 11.0 0.00 0.00 0.00 50 1006.9
20260902194859 74 325 0.0 11.0 0.00 0.00 0.00 50 1007.0
20260902194136 74 11 1.0 9.0 0.00 0.00 0.00 48 1007.1
20260902193632 74 326 1.0 8.0 0.00 0.00 0.00 47 1007.3
20260902193127 74 5 2.0 8.0 0.00 0.00 0.00 48 1007.3
20260902192621 74 240 1.0 10.0 0.00 0.00 0.00 49 1007.3
20260902192122 74 339 3.0 10.0 0.00 0.00 0.00 47 1007.4
20260902191622 74 200 1.0 12.0 0.00 0.00 0.00 51 1007.4
20260902191123 74 111 2.0 12.0 0.00 0.00 0.00 51 1007.4
20260902190617 74 167 2.0 7.0 0.00 0.00 0.00 52 1007.6
20260902190113 74 53 1.0 5.0 0.00 0.00 0.00 50 1007.6
20260902185603 73 279 0.0 7.0 0.00 0.00 0.00 50 1007.6
20260902185103 73 184 1.0 8.0 0.00 0.00 0.00 52 1007.7
20260902185045 73 334 3.0 8.0 0.00 0.00 0.00 52 1007.8
20260902184105 73 293 1.0 9.0 0.00 0.00 0.00 54 1007.6
20260902183604 73 220 1.0 9.0 0.00 0.00 0.00 53 1007.7
20260902183104 73 33 3.0 9.0 0.00 0.00 0.00 50 1007.7
20260902182559 73 30 0.0 3.0 0.00 0.00 0.00 56 1007.7
20260902182059 72 33 0.0 4.0 0.00 0.00 0.00 54 1007.8
20260902181559 72 36 0.0 7.0 0.00 0.00 0.00 53 1007.8
20260902181059 72 328 1.0 7.0 0.00 0.00 0.00 54 1007.8
20260902180554 71 350 0.0 6.0 0.00 0.00 0.00 55 1007.8
20260902180057 71 301 1.0 5.0 0.00 0.00 0.00 57 1007.8
20260902175550 71 148 0.0 2.0 0.00 0.00 0.00 56 1007.8
20260902175050 71 88 0.0 1.0 0.00 0.00 0.00 57 1007.8
20260902174550 70 89 0.0 2.0 0.00 0.00 0.00 56 1007.8
20260902174314 70 88 0.0 2.0 0.00 0.00 0.00 58 1007.8
20260902173551 70 88 0.0 3.0 0.00 0.00 0.00 57 1007.9
20260902173050 69 88 0.0 4.0 0.00 0.00 0.00 58 1007.9
20260902172546 69 81 0.0 4.0 0.00 0.00 0.00 60 1008.0
20260902172036 69 57 0.0 3.0 0.00 0.00 0.00 58 1008.0
20260902171752 69 57 0.0 3.0 0.00 0.00 0.00 57 1008.0
20260902171253 69 159 0.0 2.0 0.00 0.00 0.00 60 1008.0
20260902170537 68 154 0.0 3.0 0.00 0.00 0.00 63 1008.2
20260902170036 68 148 0.0 3.0 0.00 0.00 0.00 62 1008.1
20260902165753 67 179 0.0 4.0 0.00 0.00 0.00 64 1008.1
20260902165011 67 88 0.0 1.0 0.00 0.00 0.00 66 1008.2
20260902164506 67 87 0.0 1.0 0.00 0.00 0.00 67 1008.2
20260902164006 67 86 0.0 1.0 0.00 0.00 0.00 68 1008.2
20260902163507 66 86 0.0 1.0 0.00 0.00 0.00 70 1008.1
20260902163225 66 87 0.0 1.0 0.00 0.00 0.00 70 1008.1
20260902162507 65 92 0.0 2.0 0.00 0.00 0.00 69 1008.2
20260902162010 64 91 0.0 2.0 0.00 0.00 0.00 69 1008.2
20260902161503 64 298 0.0 2.0 0.00 0.00 0.00 71 1008.2
20260902161003 63 296 0.0 0.0 0.00 0.00 0.00 75 1008.2
20260902160503 62 296 0.0 0.0 0.00 0.00 0.00 75 1008.2
20260902160004 62 296 0.0 0.0 0.00 0.00 0.00 76 1008.1
20260902155501 61 296 0.0 0.0 0.00 0.00 0.00 75 1008.3
20260902155220 61 296 0.0 0.0 0.00 0.00 0.00 77 1008.3
20260902154717 60 296 0.0 0.0 0.00 0.00 0.00 76 1008.5
20260902153949 60 296 0.0 1.0 0.00 0.00 0.00 78 1008.5
20260902153444 60 297 0.0 0.0 0.00 0.00 0.00 76 1008.6
20260902152944 59 297 0.0 0.0 0.00 0.00 0.00 80 1008.7
20260902152447 59 297 0.0 0.0 0.00 0.00 0.00 79 1008.7
20260902151944 58 297 0.0 0.0 0.00 0.00 0.00 80 1008.8
20260902151925 57 297 0.0 0.0 0.00 0.00 0.00 81 1008.9
20260902150944 57 297 0.0 0.0 0.00 0.00 0.00 82 1008.9
20260902150442 56 297 0.0 0.0 0.00 0.00 0.00 87 1009.0
20260902145940 56 297 0.0 2.0 0.00 0.00 0.00 88 1009.0
20260902145440 55 297 0.0 2.0 0.00 0.00 0.00 93 1009.1
20260902145204 55 300 0.0 0.0 0.00 0.00 0.00 94 1009.1
20260902144438 55 300 0.0 0.0 0.00 0.00 0.00 94 1009.1
20260902143935 54 300 0.0 0.0 0.00 0.00 0.00 94 1009.1
20260902143431 54 300 0.0 0.0 0.00 0.00 0.00 93 1009.1
20260902142931 54 300 0.0 0.0 0.00 0.00 0.00 93 1009.2
20260902142434 53 300 0.0 0.0 0.00 0.00 0.00 93 1009.3
20260902141931 53 300 0.0 0.0 0.00 0.00 0.00 93 1009.2
20260902141431 53 300 0.0 0.0 0.00 0.00 0.00 93 1009.3
20260902141200 53 300 0.0 0.0 0.00 0.00 0.00 93 1009.3
20260902140426 52 300 0.0 0.0 0.00 0.00 0.00 92 1009.2
20260902135917 52 300 0.0 0.0 0.00 0.00 0.00 91 1009.2
20260902135412 52 300 0.0 0.0 0.00 0.00 0.00 91 1009.3
20260902134902 52 300 0.0 0.0 0.00 0.00 0.00 90 1009.3
20260902134356 51 300 0.0 0.0 0.00 0.00 0.00 90 1009.3
20260902133856 51 300 0.0 0.0 0.00 0.00 0.00 90 1009.5
20260902133357 51 300 0.0 0.0 0.00 0.00 0.00 89 1009.3
20260902132857 51 300 0.0 0.0 0.00 0.00 0.00 89 1009.3
20260902132353 51 300 0.0 0.0 0.00 0.00 0.00 89 1009.5
20260902131852 52 300 0.0 0.0 0.00 0.00 0.00 88 1009.5
20260902131355 52 300 0.0 0.0 0.00 0.00 0.00 88 1009.5
20260902130833 52 300 0.0 0.0 0.00 0.00 0.00 88 1009.6
20260902130332 52 300 0.0 0.0 0.00 0.00 0.00 88 1009.6
20260902125828 52 300 0.0 0.0 0.00 0.00 0.00 88 1009.6
20260902125305 52 300 0.0 0.0 0.00 0.00 0.00 88 1009.7
20260902124804 52 300 0.0 0.0 0.00 0.00 0.00 88 1009.6
20260902124303 52 300 0.0 0.0 0.00 0.00 0.00 87 1009.6
20260902123801 53 300 0.0 0.0 0.00 0.00 0.00 87 1009.6
20260902123259 53 300 0.0 0.0 0.00 0.00 0.00 87 1009.6
20260902123022 53 300 0.0 0.0 0.00 0.00 0.00 87 1009.5
20260902122305 53 300 0.0 0.0 0.00 0.00 0.00 86 1009.5
20260902121759 53 300 0.0 0.0 0.00 0.00 0.00 86 1009.5
20260902121746 53 300 0.0 0.0 0.00 0.00 0.00 86 1009.6
20260902121018 53 300 0.0 0.0 0.00 0.00 0.00 86 1009.6
20260902120459 53 300 0.0 0.0 0.00 0.00 0.00 85 1009.6
20260902115725 53 300 0.0 0.0 0.00 0.00 0.00 86 1009.6
20260902115219 53 300 0.0 0.0 0.00 0.00 0.00 85 1009.7
20260902114705 53 300 0.0 0.0 0.00 0.00 0.00 85 1009.7
20260902114159 54 300 0.0 0.0 0.00 0.00 0.00 85 1009.7
20260902113655 54 300 0.0 0.0 0.00 0.00 0.00 84 1009.8
20260902113155 54 300 0.0 0.0 0.00 0.00 0.00 84 1009.8
20260902112908 54 300 0.0 0.0 0.00 0.00 0.00 84 1009.9
20260902112145 54 300 0.0 0.0 0.00 0.00 0.00 84 1010.0
20260902111643 54 300 0.0 0.0 0.00 0.00 0.00 83 1010.1
20260902111400 54 300 0.0 0.0 0.00 0.00 0.00 83 1010.1
20260902110625 55 300 0.0 0.0 0.00 0.00 0.00 83 1010.1
20260902110121 55 300 0.0 0.0 0.00 0.00 0.00 83 1010.1
20260902105838 55 300 0.0 0.0 0.00 0.00 0.00 83 1010.2
20260902105124 55 300 0.0 0.0 0.00 0.00 0.00 83 1010.2
20260902104621 55 300 0.0 0.0 0.00 0.00 0.00 82 1010.3
20260902104116 56 300 0.0 0.0 0.00 0.00 0.00 82 1010.3
20260902103620 56 300 0.0 0.0 0.00 0.00 0.00 82 1010.5
20260902103059 56 300 0.0 0.0 0.00 0.00 0.00 82 1010.5
20260902102557 56 300 0.0 0.0 0.00 0.00 0.00 82 1010.5
20260902102057 56 300 0.0 0.0 0.00 0.00 0.00 82 1010.3
20260902101557 56 300 0.0 0.0 0.00 0.00 0.00 82 1010.3
20260902101317 56 300 0.0 0.0 0.00 0.00 0.00 83 1010.5
20260902100553 56 300 0.0 0.0 0.00 0.00 0.00 83 1010.6
20260902100055 56 300 0.0 0.0 0.00 0.00 0.00 84 1010.6
20260902095552 56 300 0.0 0.0 0.00 0.00 0.00 84 1010.6
20260902095053 57 300 0.0 0.0 0.00 0.00 0.00 84 1010.7
20260902094811 57 300 0.0 0.0 0.00 0.00 0.00 83 1010.7
20260902094043 57 300 0.0 0.0 0.00 0.00 0.00 84 1010.7
20260902093536 57 300 0.0 1.0 0.00 0.00 0.00 84 1010.8
20260902093255 56 300 0.0 1.0 0.00 0.00 0.00 83 1010.8
20260902092519 57 300 0.0 0.0 0.00 0.00 0.00 83 1010.6
20260902092023 57 300 0.0 0.0 0.00 0.00 0.00 83 1010.5
20260902091519 57 300 0.0 0.0 0.00 0.00 0.00 84 1010.7
20260902091027 57 300 0.0 0.0 0.00 0.00 0.00 84 1010.7
20260902090520 57 300 0.0 0.0 0.00 0.00 0.00 83 1010.9
20260902090031 57 300 0.0 0.0 0.00 0.00 0.00 83 1011.0
20260902085510 57 300 0.0 0.0 0.00 0.00 0.00 83 1011.0
20260902085017 57 300 0.0 0.0 0.00 0.00 0.00 85 1010.9
20260902084510 57 300 0.0 0.0 0.00 0.00 0.00 85 1011.0
20260902084239 57 300 0.0 2.0 0.00 0.00 0.00 86 1011.0
20260902083501 57 300 0.0 2.0 0.00 0.00 0.00 85 1010.9
20260902083002 57 300 0.0 0.0 0.00 0.00 0.00 84 1011.0
20260902082500 57 300 0.0 0.0 0.00 0.00 0.00 83 1010.9
20260902081957 57 300 0.0 0.0 0.00 0.00 0.00 84 1010.9
20260902081450 57 300 0.0 0.0 0.00 0.00 0.00 83 1010.9
20260902080952 57 300 0.0 0.0 0.00 0.00 0.00 84 1010.9
20260902080451 58 300 0.0 0.0 0.00 0.00 0.00 84 1010.7
20260902080216 58 300 0.0 0.0 0.00 0.00 0.00 84 1010.9
20260902075453 58 300 0.0 0.0 0.00 0.00 0.00 83 1010.9
20260902074951 58 300 0.0 0.0 0.00 0.00 0.00 83 1011.1
20260902074446 58 300 0.0 0.0 0.00 0.00 0.00 83 1011.1
20260902074208 58 300 0.0 0.0 0.00 0.00 0.00 83 1011.1
20260902073448 58 300 0.0 0.0 0.00 0.00 0.00 83 1011.2
20260902072947 58 300 0.0 0.0 0.00 0.00 0.00 82 1011.2
20260902072706 58 300 0.0 0.0 0.00 0.00 0.00 83 1011.1
20260902071934 58 300 0.0 0.0 0.00 0.00 0.00 82 1011.2
20260902071427 58 300 0.0 0.0 0.00 0.00 0.00 82 1011.2
20260902070930 58 300 0.0 0.0 0.00 0.00 0.00 80 1011.4
20260902070911 58 300 0.0 0.0 0.00 0.00 0.00 80 1011.4
20260902065929 59 300 0.0 0.0 0.00 0.00 0.00 78 1011.2
20260902065654 59 300 0.0 0.0 0.00 0.00 0.00 76 1011.4
20260902065154 59 300 0.0 0.0 0.00 0.00 0.00 75 1011.4
20260902064635 59 300 0.0 0.0 0.00 0.00 0.00 76 1011.2
20260902063920 60 300 0.0 0.0 0.00 0.00 0.00 75 1011.4
20260902063422 60 300 0.0 0.0 0.00 0.00 0.00 76 1011.4
20260902063138 60 300 0.0 0.0 0.00 0.00 0.00 76 1011.4
20260902062419 60 300 0.0 0.0 0.00 0.00 0.00 75 1011.5
20260902061921 61 300 0.0 0.0 0.00 0.00 0.00 73 1011.4
20260902061414 61 300 0.0 0.0 0.00 0.00 0.00 76 1011.4
20260902060915 61 300 0.0 0.0 0.00 0.00 0.00 73 1011.5
20260902060410 62 300 0.0 0.0 0.00 0.00 0.00 72 1011.5
20260902060352 62 300 0.0 0.0 0.00 0.00 0.00 72 1011.6
20260902055845 62 300 0.0 0.0 0.00 0.00 0.00 71 1011.6
20260902054856 63 300 0.0 0.0 0.00 0.00 0.00 69 1011.6
20260902054350 63 300 0.0 1.0 0.00 0.00 0.00 68 1011.6
20260902053848 64 300 0.0 1.0 0.00 0.00 0.00 66 1011.6
20260902053348 64 300 0.0 0.0 0.00 0.00 0.00 64 1011.6
20260902052848 65 300 0.0 0.0 0.00 0.00 0.00 62 1011.7
20260902052341 65 300 0.0 0.0 0.00 0.00 0.00 61 1011.7
20260902052057 66 300 0.0 1.0 0.00 0.00 0.00 61 1011.7
20260902051337 66 300 0.0 1.0 0.00 0.00 0.00 60 1011.8
20260902051100 67 227 0.0 1.0 0.00 0.00 0.00 56 1011.8
20260902050336 67 227 0.0 2.0 0.00 0.00 0.00 55 1011.7
20260902045840 67 225 0.0 7.0 0.00 0.00 0.00 55 1011.8
20260902045322 67 218 0.0 7.0 0.00 0.00 0.00 54 1011.8
20260902044825 68 169 0.0 4.0 0.00 0.00 0.00 59 1011.7
20260902044548 68 159 0.0 8.0 0.00 0.00 0.00 51 1011.7
20260902043821 68 122 0.0 8.0 0.00 0.00 0.00 53 1011.8
20260902043318 69 76 0.0 0.0 0.00 0.00 0.00 52 1011.8
20260902042820 69 76 0.0 1.0 0.00 0.00 0.00 52 1011.8
20260902042319 69 76 0.0 6.0 0.00 0.00 0.00 49 1011.7
20260902041817 69 40 0.0 10.0 0.00 0.00 0.00 52 1011.7
20260902041308 70 320 0.0 10.0 0.00 0.00 0.00 48 1011.6
20260902040806 70 164 0.0 6.0 0.00 0.00 0.00 47 1011.7
20260902040304 70 313 1.0 6.0 0.00 0.00 0.00 47 1011.7
20260902035806 70 338 0.0 14.0 0.00 0.00 0.00 47 1011.7
20260902035520 70 209 1.0 14.0 0.00 0.00 0.00 45 1011.7
20260902034802 70 22 1.0 12.0 0.00 0.00 0.00 46 1011.7
20260902034254 70 323 4.0 12.0 0.00 0.00 0.00 45 1011.6
20260902033756 70 178 4.0 12.0 0.00 0.00 0.00 45 1011.6
20260902033255 70 261 2.0 12.0 0.00 0.00 0.00 46 1011.7
20260902032757 70 5 2.0 7.0 0.00 0.00 0.00 47 1011.5
20260902032255 70 304 0.0 9.0 0.00 0.00 0.00 47 1011.4
20260902031757 70 333 1.0 12.0 0.00 0.00 0.00 46 1011.2
20260902031735 70 130 2.0 12.0 0.00 0.00 0.00 46 1011.1
20260902031015 69 33 2.0 12.0 0.00 0.00 0.00 46 1010.9
20260902030241 69 34 1.0 10.0 0.00 0.00 0.00 48 1010.9
20260902025742 69 283 1.0 10.0 0.00 0.00 0.00 51 1010.8
20260902025243 69 222 1.0 12.0 0.00 0.00 0.00 52 1010.6
20260902024743 68 207 0.0 12.0 0.00 0.00 0.00 51 1010.6
20260902024241 67 121 1.0 9.0 0.00 0.00 0.00 51 1010.5
20260902023738 66 296 1.0 9.0 0.00 0.00 0.00 55 1010.3
20260902023231 65 329 0.0 8.0 0.00 0.00 0.00 58 1010.3
20260902022733 64 28 2.0 11.0 0.00 0.00 0.00 60 1010.1
20260902022227 63 317 1.0 13.0 0.00 0.00 0.00 65 1009.9
20260902021952 62 318 2.0 13.0 0.00 0.00 0.00 65 1009.8
20260902021227 62 345 0.0 4.0 0.00 0.00 0.00 79 1009.7
20260902020729 62 127 0.0 2.0 0.00 0.00 0.00 80 1009.2
20260902020228 62 127 0.0 2.0 0.00 0.00 0.00 78 1009.2
20260902015722 62 127 0.0 2.0 0.00 0.00 0.00 77 1009.2
20260902015218 63 126 0.0 0.0 0.00 0.00 0.00 77 1009.2
20260902014719 63 126 0.0 0.0 0.00 0.00 0.00 75 1009.3
20260902014215 64 126 0.0 0.0 0.00 0.00 0.00 75 1009.2
20260902013920 64 126 0.0 0.0 0.00 0.00 0.00 73 1009.3
20260902013818 64 126 0.0 0.0 0.00 0.00 0.00 74 1009.3
20260902012717 65 126 0.0 0.0 0.00 0.00 0.00 72 1009.2
20260902012214 65 126 0.0 0.0 0.00 0.00 0.00 70 1009.3
20260902011710 66 126 0.0 0.0 0.00 0.00 0.00 68 1009.3
20260902011423 67 126 0.0 0.0 0.00 0.00 0.00 67 1009.3
20260902010931 68 126 0.0 0.0 0.00 0.00 0.00 67 1009.2
20260902010202 69 126 0.0 0.0 0.00 0.00 0.00 67 1009.2
20260902005931 69 126 0.0 0.0 0.00 0.00 0.00 65 1009.2
20260902005154 70 126 0.0 0.0 0.00 0.00 0.00 63 1009.3
20260902004655 71 126 0.0 0.0 0.00 0.00 0.00 62 1009.2
20260902004354 72 126 0.0 0.0 0.00 0.00 0.00 64 1009.3
20260902003624 73 126 0.0 0.0 0.00 0.00 0.00 63 1009.2
20260902003124 73 126 0.0 0.0 0.00 0.00 0.00 61 1009.2
20260902002627 74 126 0.0 0.0 0.00 0.00 0.00 60 1009.2
20260902002342 74 126 0.0 0.0 0.00 0.00 0.00 59 1009.3
20260902001610 75 126 0.0 0.0 0.00 0.00 0.00 60 1009.5
20260902001109 75 126 0.0 0.0 0.00 0.00 0.00 62 1009.5
20260902000610 75 126 0.0 0.0 0.00 0.00 0.00 62 1009.6
20260902000110 76 126 0.0 0.0 0.00 0.00 0.00 63 1009.7
20260901235610 76 126 0.0 0.0 0.00 0.00 0.00 66 1009.7
20260901235327 76 126 0.0 0.0 0.00 0.00 0.00 65 1009.7
20260901234821 76 126 0.0 0.0 0.00 0.00 0.00 63 1009.8
20260901234050 76 126 0.0 0.0 0.00 0.00 0.00 61 1009.9
20260901233541 77 126 0.0 0.0 0.00 0.00 0.00 62 1009.7
20260901233040 77 126 0.0 1.0 0.00 0.00 0.00 62 1009.7
20260901232801 77 126 0.0 1.0 0.00 0.00 0.00 60 1009.8
20260901232042 77 126 0.0 0.0 0.00 0.00 0.00 46 1009.8
20260901231541 77 126 0.0 0.0 0.00 0.00 0.00 62 1009.9
20260901231036 77 126 0.0 0.0 0.00 0.00 0.00 62 1009.8
20260901230534 77 126 0.0 0.0 0.00 0.00 0.00 64 1009.9
20260901230032 77 126 0.0 0.0 0.00 0.00 0.00 60 1009.9
20260901225531 77 126 0.0 0.0 0.00 0.00 0.00 62 1010.0
20260901225022 77 126 0.0 0.0 0.00 0.00 0.00 61 1010.1
20260901224745 78 126 0.0 0.0 0.00 0.00 0.00 60 1010.1
20260901224012 78 126 0.0 0.0 0.00 0.00 0.00 62 1010.2
20260901223513 79 126 0.0 0.0 0.00 0.00 0.00 60 1010.3
20260901223013 79 126 0.0 0.0 0.00 0.00 0.00 58 1010.3
20260901222513 79 126 0.0 0.0 0.00 0.00 0.00 58 1010.3
20260901222014 80 126 0.0 0.0 0.00 0.00 0.00 52 1010.3
20260901221513 80 126 0.0 0.0 0.00 0.00 0.00 49 1010.5
20260901221233 80 126 0.0 0.0 0.00 0.00 0.00 50 1010.5